Weather History for Norfolk, NE

Change the Weather History Date:

Friday, February 8, 2013

  Actual Average Record
Temperature  
Mean Temperature 31 °F 25 °F  
Max Temperature 38 °F 35 °F 67 °F (1954)
Min Temperature 24 °F 15 °F -27 °F (1933)
Degree Days  
Heating Degree Days 34 40  
Month to date heating degree days 254 326  
Since 1 July heating degree days 4136 4348  
Cooling Degree Days 0 0  
Month to date cooling degree days 0 0  
Year to date cooling degree days 0 0  
Moisture  
Dew Point 24 °F    
Average Humidity 74    
Maximum Humidity 88    
Minimum Humidity 59    
Precipitation  
Precipitation 0.00 in 0.03 in 1.32 in (1966)
Month to date precipitation 0.01 0.20  
Year to date precipitation 0.25 0.79  
Snow  
Snow 0.00 in 0.20 in - ()
Month to date snowfall T 1.8  
Since 1 July snowfall 7.8 19.1  
Snow Depth 0.00 in    
Sea Level Pressure  
Sea Level Pressure 30.22 in    
Wind  
Wind Speed 11 mph (SE)    
Max Wind Speed 22 mph    
Max Gust Speed 29 mph    
Visibility 8 miles    
Events      
T = Trace of Precipitation, MM = Missing Value Source: NWS Daily Summary

Daily Weather History Graph

Daily Weather History Graph

Search for Another Location

Airport:

Trip Planner

Search our weather history database for the weather conditions in past years. The results will help you decide how hot, cold, wet, or windy it might be!

Date:

Astronomy

Feb. 08, 2013 Rise Set
Actual Time 7:34 AM CST 5:54 PM CST
Civil Twilight 7:05 AM CST 6:23 PM CST
Nautical Twilight 6:32 AM CST 6:56 PM CST
Astronomical Twilight 5:59 AM CST 7:28 PM CST
Moon 6:04 AM CST (2/8) 4:28 PM CST (2/8)
Length of Visible Light 11h 17m
Length of Day
10h 19m
Waning Crescent, 3% of the Moon is Illuminated
Feb 8
Waning Crescent
Feb 10
New
Feb 17
First Quarter
Feb 25
Full
Mar 4
Last Quarter

Hourly Weather History & Observations

Time (CST) Temp. Windchill Dew Point Humidity Pressure Visibility Wind Dir Wind Speed Gust Speed Precip Events Conditions
12:56 AM 27.0 °F - 23.0 °F 85% 30.30 in 9.0 mi Calm Calm - N/A   Overcast
1:56 AM 27.0 °F 21.6 °F 21.9 °F 81% 30.30 in 10.0 mi ENE 4.6 mph - N/A   Overcast
2:56 AM 27.0 °F 23.0 °F 23.0 °F 85% 30.30 in 10.0 mi ESE 3.5 mph - N/A   Overcast
3:56 AM 27.0 °F 21.6 °F 23.0 °F 85% 30.30 in 9.0 mi East 4.6 mph - N/A   Overcast
4:56 AM 26.1 °F 18.4 °F 21.9 °F 84% 30.31 in 8.0 mi ESE 6.9 mph - N/A   Overcast
5:56 AM 25.0 °F 18.1 °F 21.9 °F 88% 30.32 in 7.0 mi SE 5.8 mph - N/A   Overcast
6:56 AM 25.0 °F 18.1 °F 21.9 °F 88% 30.31 in 6.0 mi SE 5.8 mph - N/A   Overcast
7:44 AM 24.8 °F 16.9 °F 21.2 °F 86% 30.24 in 6.0 mi SE 6.9 mph - N/A   Overcast
7:56 AM 25.0 °F 17.1 °F 21.9 °F 88% 30.32 in 6.0 mi SSE 6.9 mph - N/A   Overcast
8:56 AM 25.0 °F 14.2 °F 21.9 °F 88% 30.32 in 4.0 mi SSE 11.5 mph - N/A   Overcast
9:56 AM 25.0 °F 14.2 °F 21.9 °F 88% 30.32 in 4.0 mi SE 11.5 mph - N/A   Overcast
10:56 AM 27.0 °F 17.3 °F 23.0 °F 85% 30.32 in 5.0 mi SE 10.4 mph - N/A   Overcast
11:56 AM 28.0 °F 17.0 °F 23.0 °F 81% 30.31 in 3.0 mi SSE 13.8 mph - N/A   Haze
12:56 PM 30.9 °F 20.2 °F 24.1 °F 76% 30.26 in 5.0 mi SSE 15.0 mph - N/A   Haze
1:40 PM 33.8 °F 23.5 °F 24.8 °F 70% 30.17 in 10.0 mi SE 16.1 mph 23.0 mph N/A   Scattered Clouds
1:56 PM 35.1 °F 25.2 °F 24.1 °F 64% 30.21 in 10.0 mi SE 16.1 mph - N/A   Clear
2:56 PM 37.0 °F 26.4 °F 25.0 °F 62% 30.17 in 10.0 mi SSE 20.7 mph 25.3 mph N/A   Clear
3:56 PM 37.0 °F 28.5 °F 25.0 °F 62% 30.14 in 10.0 mi SE 13.8 mph - N/A   Clear
4:56 PM 35.1 °F 25.2 °F 25.0 °F 67% 30.14 in 7.0 mi SE 16.1 mph 21.9 mph N/A   Clear
5:56 PM 33.1 °F 23.0 °F 25.0 °F 72% 30.13 in 6.0 mi SE 15.0 mph - N/A   Haze
6:56 PM 30.0 °F 20.5 °F 24.1 °F 79% 30.12 in 5.0 mi SE 11.5 mph - N/A   Haze
7:56 PM 30.0 °F 18.7 °F 25.0 °F 82% 30.10 in 9.0 mi SSE 16.1 mph - N/A   Clear
8:56 PM 28.9 °F 21.9 °F 25.0 °F 85% 30.13 in 10.0 mi SSE 6.9 mph - N/A   Clear
9:56 PM 28.9 °F 16.9 °F 25.0 °F 85% 30.11 in 9.0 mi SE 17.3 mph - N/A   Clear
10:56 PM 30.9 °F 18.7 °F 26.1 °F 82% 30.09 in 10.0 mi SE 19.6 mph 28.8 mph N/A   Clear
11:56 PM 30.9 °F 19.8 °F 26.1 °F 82% 30.08 in 10.0 mi SSE 16.1 mph - N/A   Clear